Regional Weather Roundup
Issued by NWS Albany, NY

Home | Current Version | Previous Version | Text Only | Print | Product List | Glossary On
Versions: 1 2 3 4 5 6 7 8 9 10 11 12 13 14 15 16 17 18 19 20 21 22 23 24 25 26 27
000
ASUS41 KALY 190810
RWRALY

NEW YORK STATE HOURLY WEATHER ROUNDUP
NATIONAL WEATHER SERVICE ALBANY NY
400 AM EDT THU OCT 19 2017

NOTE: "FAIR" INDICATES FEW OR NO CLOUDS BELOW 12,000 FEET WITH NO
SIGNIFICANT WEATHER AND/OR NO OBSTRUCTIONS TO VISIBILITY.

NYZ032-033-038>043-046>054-057>066-NYZ062>081-082-084-190900-
EAST


CITY           SKY/WX    TMP DP  RH WIND       PRES   REMARKS
ALBANY         CLEAR     46  43  89 CALM      30.21F
GLENS FALLS    CLEAR     37  36  96 CALM      30.19S
POUGHKEEPSIE   CLEAR     43  41  93 CALM      30.23F
NEWBURGH       CLEAR     46  45  93 CALM      30.25S
MONTGOMERY     CLEAR     44  43  96 CALM      30.23F FOG
WHITE PLAINS   CLEAR     49  47  93 CALM      30.24F
ISLIP          CLEAR     51  50  96 CALM      30.25F
NEW YORK CITY  CLEAR     60  45  57 SW5       30.25S
CENTRAL PARK   CLEAR     58  45  62 W6        30.28F
$$

NYZ005>009-017-018-044>046-055-056-190900-
CENTRAL


CITY           SKY/WX    TMP DP  RH WIND       PRES   REMARKS
FULTON           N/A    N/A N/A N/A MISG      30.12F
SYRACUSE       CLEAR     52  43  71 S3        30.13F
ROME           CLEAR     50  44  80 E3        30.17F
ELMIRA         CLEAR     37  37 100 CALM      30.18F
BINGHAMTON     CLEAR     52  41  66 S9        30.19F
MONTICELLO     CLEAR     42  40  92 CALM      30.25F
$$

NYZ026>034-041>043-087-190900-
NORTH


CITY           SKY/WX    TMP DP  RH WIND       PRES   REMARKS
WATERTOWN      CLEAR     57  44  62 S6        30.09F
FORT DRUM      NOT AVBL
OGDENSBURG     FAIR      53  46  79 S5        30.07S
MASSENA        CLEAR     54  46  74 S7        30.07F
SARANAC LAKE   CLEAR     52  44  74 SW8       30.12F
PLATTSBURGH    CLEAR     38  37  97 S3        30.10F
$$

NYZ001>004-010>016-019>021-085-190900-
WEST


CITY           SKY/WX    TMP DP  RH WIND       PRES   REMARKS
NIAGARA FALLS    N/A     60  45  57 SW13      30.08F
BUFFALO        CLEAR     54  41  61 S13       30.09F
DUNKIRK        CLEAR     56  41  57 S14       30.13F
JAMESTOWN      CLEAR     46  39  76 S7        30.17F
WELLSVILLE     CLEAR     54  38  54 SW8       30.18F
ROCHESTER      CLEAR     56  42  59 SW14G24   30.10F
PENN YAN       CLEAR     55  42  61 SW9       30.14F
$$

             KEY
       WCI = WIND CHILL INDEX
       VSB = VISIBILITY
       HX  = HEAT INDEX
$$




USA.gov is the U.S. government's official web portal to all federal, state and local government web resources and services.